Wind_Speed
13 13 13 13 10 12 10 0 5 6 7 6 6 5 6 8 8 9 9 8 7 6 5 3 2 2 3 5 5 6 6 7 9 11 12 12 12 11 9 9 11 12 13 13 12 12 11 11 11
12 11 12 11 9 9 6 5 2 4 5 5 5 4 4 5 5 7 7 7 8 7 5 3 2 2 4 5 5 5 6 8 10 11 12 12 11 9 8 8 10 12 12 12 12 12 12 12 12
11 11 10 7 12 9 5 4 2 1 1 2 3 3 2 2 2 2 4 6 7 7 6 5 4 4 5 6 6 5 5 7 10 12 12 12 11 8 7 8 10 11 11 11 11 11 12 12 13
12 11 10 8 9 4 3 5 3 5 3 2 2 1 1 1 1 2 4 6 7 7 7 7 6 6 8 8 7 6 6 8 10 12 13 13 12 10 8 9 10 11 10 10 11 11 11 12 13
12 12 10 8 4 3 5 3 1 4 4 4 5 6 5 5 7 8 8 8 9 9 9 9 10 10 11 11 11 10 9 10 12 13 14 13 13 11 10 10 11 11 10 10 11 11 11 11 12
14 13 12 4 2 6 7 4 1 3 4 4 5 7 6 6 8 9 11 12 12 12 13 13 13 13 14 14 14 13 13 13 13 14 14 14 14 14 13 12 11 11 10 10 11 11 10 10 11
14 13 11 5 5 9 11 6 5 6 5 6 7 9 5 7 8 9 11 12 12 12 13 14 15 16 16 16 16 15 14 13 14 14 15 16 16 16 16 15 14 13 13 13 13 12 11 10 10
13 12 9 7 4 13 13 7 7 5 10 8 8 11 7 8 8 9 11 13 13 13 12 14 14 16 17 17 17 16 15 14 14 15 16 17 18 18 19 19 18 18 18 17 16 16 14 11 10
13 12 9 6 5 12 11 7 8 8 11 11 11 12 12 10 9 9 11 13 14 14 13 14 14 16 17 17 17 17 17 17 16 17 18 20 21 22 22 23 23 23 23 22 21 20 19 15 13
16 15 12 10 15 14 11 8 8 7 11 16 15 16 17 14 13 12 12 12 14 14 14 14 14 17 18 18 19 20 20 20 20 20 22 23 24 25 25 25 25 24 24 23 23 23 23 21 17
20 20 19 17 18 19 16 13 12 9 9 17 16 17 19 17 16 17 16 16 16 17 17 18 18 19 21 22 23 24 24 24 25 25 26 26 27 27 27 27 27 27 27 27 25 23 25 25 22
26 24 23 21 20 20 20 19 17 16 16 24 24 24 24 23 22 21 22 22 21 22 23 23 25 25 26 27 26 27 28 28 28 29 30 31 31 31 32 32 32 32 32 33 31 27 26 27 27
29 28 27 26 25 25 25 23 22 23 24 30 30 28 28 28 29 29 27 27 27 27 30 30 30 31 31 32 31 30 31 31 32 32 32 34 35 35 35 35 35 35 34 34 35 33 29 28 29
32 32 30 28 28 29 31 29 26 25 27 34 34 31 31 32 32 34 33 32 33 33 34 35 35 35 36 37 37 36 36 36 36 36 35 35 37 39 39 40 40 40 39 36 35 36 34 31 30
34 33 31 29 30 32 33 33 28 27 31 39 38 36 34 33 34 36 38 38 39 39 39 40 40 41 41 42 42 42 41 41 40 40 40 38 38 40 42 43 44 45 45 43 40 39 38 36 34
34 34 33 28 29 34 35 32 26 29 35 42 42 39 36 34 37 40 42 43 44 44 44 44 45 46 46 46 46 45 44 44 44 44 43 42 41 43 45 46 47 48 49 50 47 45 43 41 39
29 28 26 20 27 36 37 32 27 32 38 43 45 45 46 44 44 44 45 46 47 48 48 48 48 49 49 48 47 46 45 44 45 45 45 45 44 44 47 49 50 52 53 53 53 51 48 46 44
15 13 14 13 24 36 40 35 28 32 43 46 49 51 51 49 48 46 46 47 47 47 47 48 47 47 46 44 43 42 42 42 43 44 45 46 45 45 47 49 51 54 55 55 55 54 52 50 49
20 21 22 19 25 37 40 37 31 29 39 44 44 44 44 44 44 43 42 41 41 41 41 41 42 42 41 41 41 42 42 43 44 44 45 46 47 48 49 50 51 52 53 52 53 52 51 52 53
15 17 20 21 27 34 34 31 28 27 33 40 39 40 40 40 40 40 39 39 39 39 39 39 41 42 42 43 44 44 45 45 45 47 47 48 49 50 50 51 51 51 50 50 49 50 51 51 53
17 17 22 28 30 31 32 32 28 27 33 38 39 38 38 39 39 39 39 40 41 42 42 43 44 45 46 47 47 48 48 48 48 48 49 49 50 51 51 51 51 51 50 48 47 48 48 49 49
22 22 29 32 31 31 30 33 28 25 34 38 39 36 35 35 37 38 38 39 40 41 42 43 44 44 46 47 48 48 48 48 48 49 49 49 49 50 51 52 53 52 51 49 47 47 46 45 44
26 27 29 29 29 28 23 25 21 21 31 35 35 33 35 35 35 35 36 36 37 38 38 39 39 39 40 42 43 44 45 45 45 46 46 47 48 49 49 50 52 53 52 50 48 46 45 43 41
20 19 18 16 16 18 17 19 16 21 26 32 37 39 37 35 34 33 33 34 34 35 35 35 35 35 36 38 40 41 42 43 44 44 45 47 48 49 48 49 51 52 52 50 48 46 44 41 38
15 14 12 8 9 14 17 17 17 22 27 32 36 38 37 36 35 35 35 34 35 36 36 36 37 37 38 39 41 42 43 44 45 47 48 49 50 50 49 49 50 51 50 48 46 43 41 38 36
12 12 11 12 11 13 15 18 20 25 29 30 32 35 37 39 39 40 39 39 38 38 39 39 39 40 40 41 42 44 46 47 48 49 50 52 52 51 50 49 48 48 46 44 42 41 37 35 36
12 11 11 15 16 15 14 15 21 29 32 33 36 38 39 40 42 43 44 44 42 41 41 41 41 41 42 43 44 46 47 48 49 50 52 52 52 51 48 46 44 42 40 37 36 36 33 33 35
16 16 18 20 21 20 18 17 23 30 33 37 39 39 40 40 42 44 45 45 45 44 44 44 43 43 44 45 46 47 48 48 49 49 50 50 48 45 42 39 37 36 33 31 32 31 30 30 30
19 21 22 23 23 25 25 20 19 28 33 36 38 40 38 38 39 43 44 44 44 44 45 46 45 44 45 46 47 47 47 47 47 47 46 44 41 38 35 33 32 32 31 30 30 29 28 28 26
15 17 21 23 24 25 26 22 21 27 30 34 38 40 39 38 38 41 42 43 42 41 41 42 43 43 43 44 44 44 43 43 42 41 39 36 34 32 30 29 29 29 29 30 29 29 27 26 24
Wind_Direction
127 121 118 115 100 83 81 189 138 134 111 101 93 89 95 99 107 118 131 143 147 152 160 182 206 287 321 328 333 336 342 350 353 354 357 360 3 5 8 19 21 14 7 4 3 1 356 350 343
131 134 139 132 68 88 114 244 215 98 102 98 92 90 95 100 116 134 147 157 162 171 180 206 249 300 316 325 333 343 360 7 2 357 353 352 357 7 16 20 17 10 5 2 3 4 2 356 346
143 150 146 144 33 40 77 259 305 352 83 93 93 93 83 100 120 170 192 196 197 202 210 226 243 267 285 300 315 332 356 1 358 354 348 342 342 350 2 5 4 4 4 3 0 360 360 357 352
151 146 148 91 31 16 295 283 323 311 288 264 251 235 316 319 286 261 247 243 240 239 244 250 255 263 273 282 295 306 319 329 335 338 337 332 327 328 334 342 348 355 0 3 1 356 352 349 349
163 152 136 64 11 281 243 264 304 307 282 269 270 256 279 286 286 280 271 267 265 264 264 265 268 271 276 280 285 291 299 308 317 324 325 322 315 311 316 324 331 339 346 352 355 354 349 343 343
177 171 132 90 324 275 263 231 156 284 281 270 280 270 272 279 282 279 275 269 265 266 269 272 274 274 278 282 284 288 297 305 310 313 314 313 307 302 304 309 314 320 325 330 336 340 341 339 337
191 189 149 91 334 288 255 240 222 238 259 281 293 283 270 277 273 276 278 275 270 264 267 271 275 276 278 282 284 288 295 301 304 306 305 303 300 296 296 300 303 306 307 308 314 318 321 324 325
200 194 171 103 312 279 268 251 248 255 279 288 296 292 287 279 273 271 276 277 276 273 268 273 275 277 277 279 282 285 291 297 302 303 301 298 294 292 292 293 294 296 297 296 296 299 299 301 305
202 191 173 135 203 259 261 250 272 271 287 299 298 292 293 291 284 278 279 281 281 281 278 277 280 282 283 285 287 289 294 298 301 302 302 300 297 294 292 291 290 290 291 291 288 286 286 284 285
210 204 195 215 212 232 251 247 265 293 316 309 301 291 287 290 292 290 287 286 286 285 284 284 286 290 292 295 297 298 300 301 302 303 306 306 303 299 295 292 291 291 292 292 290 283 277 276 275
223 221 223 228 232 239 252 259 266 275 282 277 274 277 283 286 288 290 288 287 287 287 286 288 290 292 294 297 300 302 303 304 304 305 309 309 306 302 298 296 296 295 295 294 293 287 276 270 269
232 233 238 245 248 249 255 259 263 263 259 263 263 272 280 287 286 285 287 287 286 286 286 286 288 288 290 293 295 297 300 301 300 301 305 307 307 306 302 298 298 297 297 296 294 290 281 272 268
239 240 244 248 253 256 257 259 262 263 264 265 267 270 274 277 280 279 279 281 282 282 284 284 285 286 288 289 291 293 294 295 294 295 298 301 304 305 305 305 303 302 300 296 294 291 285 279 273
248 248 250 255 261 263 264 263 265 269 270 267 269 269 270 273 277 280 280 280 280 280 281 283 284 285 287 289 290 292 293 293 293 293 293 294 297 298 300 301 302 302 303 303 298 294 289 284 280
252 258 261 264 269 269 268 268 270 269 262 266 271 272 272 274 278 280 281 281 280 280 282 284 285 286 288 289 290 291 293 293 293 294 295 292 290 291 293 295 297 298 298 298 300 297 292 286 281
258 261 265 270 273 270 271 272 271 266 262 267 273 275 277 278 281 282 282 282 282 283 283 285 286 286 287 287 288 289 291 292 292 293 293 292 290 289 289 290 291 292 292 292 293 294 293 288 282
265 273 277 275 269 272 273 273 270 269 267 269 275 279 282 283 283 283 283 283 284 285 286 286 285 285 285 285 286 287 288 288 288 288 288 288 288 287 287 286 286 286 287 288 288 288 288 288 284
247 251 261 249 258 266 269 271 269 269 273 275 278 282 285 286 285 284 282 282 282 282 283 284 284 284 284 284 284 283 283 283 283 284 285 285 284 284 283 283 284 284 285 285 285 285 285 285 285
243 229 220 225 248 262 269 278 279 264 272 278 281 284 286 287 287 287 285 285 284 284 284 284 284 285 285 284 283 282 282 281 282 282 283 283 283 282 281 281 282 282 284 284 283 282 280 282 283
255 251 250 254 257 266 278 285 286 283 277 280 286 288 289 289 289 289 290 290 289 289 288 287 286 287 286 285 284 284 283 282 282 282 282 281 280 280 280 280 281 281 281 282 282 280 278 280 281
266 267 262 255 261 276 286 288 292 291 281 285 289 290 292 292 291 290 289 289 288 288 287 286 285 285 285 285 285 285 284 284 283 282 281 281 280 280 280 279 279 279 279 279 280 280 278 279 279
270 266 269 275 281 284 286 289 290 286 282 285 286 291 295 295 293 292 291 290 288 286 285 284 283 283 284 284 284 283 283 283 283 282 282 281 280 280 280 280 279 279 279 279 279 279 278 277 276
274 279 282 287 291 293 297 294 297 281 276 283 289 295 298 297 295 293 291 290 289 288 287 286 285 284 284 283 283 283 283 283 283 282 282 281 281 281 281 280 280 278 277 277 278 277 277 276 273
289 294 296 303 312 303 283 270 272 270 278 287 293 296 298 298 297 294 292 290 288 287 287 286 286 285 284 283 283 282 282 282 281 281 281 282 282 281 281 280 279 278 276 275 275 274 274 273 268
303 309 310 307 304 299 299 307 302 292 294 296 296 298 301 300 298 296 294 291 288 287 286 287 287 287 287 287 286 285 285 284 283 283 283 284 284 283 281 280 278 276 273 270 270 271 271 268 263
315 316 319 308 290 278 290 301 294 290 295 295 294 297 298 297 296 295 294 291 289 288 286 286 287 288 289 289 289 289 288 286 285 285 286 286 284 284 282 279 275 272 270 266 265 266 265 261 257
317 315 306 302 306 305 303 295 298 293 295 298 301 303 301 298 297 296 294 291 289 287 285 284 284 285 286 287 288 289 288 287 287 287 287 287 285 283 279 274 271 268 264 260 259 260 256 253 252
317 316 312 311 311 307 301 292 286 291 297 299 302 304 304 303 303 302 300 296 291 286 283 281 281 283 284 286 288 289 290 289 289 289 289 288 286 282 277 271 266 260 253 252 251 248 244 244 243
307 316 319 316 311 308 308 307 295 288 290 294 298 301 303 306 307 305 304 301 297 291 285 281 280 281 283 286 288 290 291 291 291 291 292 290 286 279 272 265 255 247 243 241 240 239 239 240 241
286 295 306 310 311 308 308 316 307 296 298 298 299 302 306 308 307 305 305 304 301 296 290 285 282 282 284 287 290 292 292 293 294 295 295 291 284 275 264 253 243 236 237 237 236 238 238 241 246
Height
5925 5926 5927 5928 5929 5926 5928 5930 5929 5926 5927 5927 5927 5926 5926 5926 5926 5928 5926 5925 5927 5928 5928 5929 5929 5930 5930 5929 5929 5928 5928 5927 5926 5925 5923 5922 5921 5920 5919 5918 5917 5915 5914 5913 5912 5910 5909 5908 5908
5927 5928 5929 5929 5928 5926 5929 5930 5929 5929 5929 5929 5928 5928 5928 5928 5927 5927 5926 5927 5927 5928 5929 5929 5930 5930 5930 5930 5929 5929 5928 5927 5926 5925 5924 5923 5921 5920 5919 5918 5917 5916 5915 5913 5912 5911 5909 5909 5908
5928 5929 5930 5930 5928 5924 5929 5930 5931 5931 5931 5930 5930 5930 5931 5930 5929 5929 5928 5928 5928 5928 5929 5929 5930 5930 5930 5929 5929 5928 5928 5927 5926 5925 5924 5923 5922 5920 5919 5918 5917 5916 5914 5913 5912 5911 5910 5909 5908
5929 5930 5931 5931 5932 5931 5931 5931 5931 5931 5931 5931 5931 5931 5931 5930 5930 5930 5930 5929 5929 5929 5929 5929 5929 5929 5929 5928 5928 5927 5927 5927 5926 5925 5924 5923 5922 5921 5920 5919 5917 5916 5914 5913 5912 5911 5910 5909 5907
5928 5930 5931 5932 5933 5932 5932 5932 5932 5932 5931 5931 5930 5930 5930 5930 5930 5930 5930 5930 5930 5930 5929 5928 5928 5928 5927 5927 5927 5926 5926 5926 5926 5925 5924 5923 5922 5921 5920 5918 5917 5916 5914 5913 5912 5910 5909 5908 5907
5928 5929 5929 5931 5933 5934 5933 5932 5932 5931 5930 5930 5930 5929 5929 5929 5929 5929 5929 5929 5929 5929 5929 5928 5927 5926 5926 5926 5925 5925 5925 5925 5924 5924 5923 5922 5921 5920 5919 5918 5917 5915 5914 5913 5912 5910 5909 5908 5907
5928 5930 5928 5931 5934 5934 5932 5932 5932 5930 5931 5930 5929 5928 5929 5927 5928 5928 5928 5928 5927 5928 5928 5927 5926 5926 5925 5925 5924 5924 5924 5923 5922 5922 5921 5920 5920 5919 5918 5917 5916 5915 5913 5912 5911 5910 5909 5907 5906
5927 5930 5930 5932 5937 5934 5931 5931 5930 5930 5929 5930 5929 5926 5926 5926 5926 5926 5926 5926 5926 5926 5927 5925 5925 5924 5924 5923 5923 5922 5922 5921 5920 5920 5919 5918 5917 5917 5916 5914 5914 5913 5912 5911 5910 5909 5907 5906 5905
5925 5929 5929 5930 5934 5931 5929 5930 5930 5929 5928 5928 5927 5926 5924 5924 5924 5924 5924 5923 5923 5924 5924 5924 5924 5923 5922 5922 5921 5920 5920 5919 5918 5917 5917 5916 5915 5915 5914 5912 5911 5910 5909 5909 5908 5907 5906 5904 5903
5924 5926 5926 5928 5928 5928 5928 5929 5929 5929 5929 5926 5925 5923 5922 5923 5923 5922 5922 5922 5921 5921 5921 5922 5922 5921 5920 5920 5919 5918 5917 5916 5916 5915 5914 5913 5913 5912 5911 5910 5908 5907 5906 5905 5905 5904 5903 5902 5901
5920 5922 5922 5923 5925 5926 5926 5927 5928 5929 5929 5924 5922 5919 5919 5920 5921 5921 5920 5920 5920 5919 5919 5918 5919 5918 5917 5917 5916 5914 5914 5913 5912 5912 5911 5910 5909 5909 5908 5908 5906 5905 5904 5902 5901 5901 5900 5899 5898
5917 5919 5920 5921 5923 5924 5924 5925 5926 5926 5926 5921 5920 5919 5918 5917 5918 5918 5918 5918 5918 5916 5915 5915 5914 5914 5913 5912 5912 5911 5909 5909 5908 5908 5907 5906 5905 5904 5904 5904 5903 5902 5901 5899 5898 5897 5896 5895 5894
5912 5915 5916 5918 5919 5920 5921 5922 5923 5923 5921 5917 5917 5918 5917 5916 5914 5913 5914 5914 5913 5913 5911 5911 5911 5909 5908 5906 5905 5905 5904 5903 5902 5902 5902 5900 5900 5899 5898 5897 5897 5896 5896 5895 5894 5893 5892 5891 5890
5907 5908 5911 5914 5915 5916 5916 5917 5919 5920 5916 5912 5912 5914 5913 5912 5911 5908 5908 5908 5907 5907 5906 5905 5905 5904 5902 5901 5899 5898 5898 5896 5895 5895 5895 5895 5893 5892 5891 5890 5889 5889 5888 5888 5887 5886 5886 5886 5885
5903 5905 5907 5909 5909 5909 5909 5911 5914 5913 5910 5906 5906 5907 5908 5908 5906 5904 5902 5902 5900 5900 5900 5898 5897 5897 5896 5894 5892 5891 5890 5889 5888 5887 5886 5887 5887 5885 5883 5883 5882 5881 5881 5880 5880 5879 5879 5879 5879
5899 5901 5903 5906 5904 5902 5903 5904 5906 5904 5902 5899 5899 5899 5900 5901 5900 5898 5896 5895 5893 5892 5892 5892 5890 5889 5887 5885 5884 5884 5882 5881 5880 5879 5877 5877 5877 5876 5875 5874 5873 5872 5872 5872 5871 5870 5870 5869 5870
5895 5896 5899 5902 5899 5896 5896 5897 5899 5897 5895 5892 5891 5890 5890 5892 5892 5891 5889 5888 5886 5885 5884 5883 5881 5879 5878 5877 5876 5875 5874 5872 5871 5870 5869 5868 5869 5868 5866 5865 5864 5862 5861 5862 5861 5861 5861 5860 5859
5892 5895 5899 5901 5896 5888 5887 5890 5894 5892 5887 5885 5884 5882 5881 5882 5882 5882 5880 5879 5878 5877 5875 5873 5872 5870 5868 5867 5866 5866 5865 5863 5862 5861 5860 5859 5858 5858 5857 5856 5854 5852 5850 5850 5849 5849 5849 5849 5848
5885 5888 5889 5892 5890 5883 5882 5883 5886 5886 5881 5878 5877 5875 5873 5872 5870 5870 5869 5868 5868 5867 5866 5864 5862 5860 5858 5857 5856 5856 5855 5854 5853 5852 5851 5850 5848 5847 5846 5845 5844 5842 5840 5838 5837 5836 5836 5836 5836
5881 5883 5885 5885 5883 5879 5878 5878 5878 5878 5874 5871 5870 5868 5866 5865 5863 5861 5860 5858 5857 5857 5856 5855 5853 5850 5849 5847 5846 5845 5844 5844 5843 5842 5841 5840 5838 5836 5834 5833 5832 5831 5829 5828 5826 5825 5824 5824 5823
5878 5879 5878 5875 5873 5873 5872 5871 5872 5870 5866 5864 5863 5861 5860 5857 5855 5853 5852 5850 5849 5847 5846 5845 5843 5841 5839 5837 5836 5834 5833 5832 5831 5830 5829 5828 5826 5825 5823 5822 5821 5819 5818 5817 5816 5814 5813 5813 5812
5872 5872 5869 5868 5869 5869 5868 5864 5866 5864 5858 5856 5854 5854 5852 5850 5847 5845 5843 5841 5839 5838 5836 5835 5834 5832 5830 5828 5825 5823 5822 5821 5820 5819 5817 5817 5816 5814 5812 5811 5809 5808 5806 5805 5804 5803 5801 5801 5800
5866 5865 5864 5863 5862 5862 5862 5860 5861 5857 5850 5848 5847 5846 5845 5843 5841 5838 5836 5833 5831 5829 5827 5826 5825 5823 5821 5819 5817 5814 5813 5811 5810 5808 5806 5805 5803 5802 5800 5799 5797 5796 5794 5793 5793 5792 5791 5790 5789
5861 5860 5859 5859 5858 5858 5857 5855 5855 5849 5845 5844 5842 5840 5839 5837 5834 5831 5829 5826 5824 5821 5820 5818 5817 5815 5813 5811 5808 5806 5804 5802 5799 5797 5795 5793 5791 5790 5788 5786 5785 5783 5782 5782 5781 5781 5780 5779 5779
5858 5857 5857 5857 5858 5855 5851 5850 5851 5846 5846 5843 5839 5835 5832 5830 5827 5824 5822 5819 5817 5814 5812 5810 5808 5806 5804 5801 5799 5796 5794 5791 5789 5786 5784 5781 5779 5777 5775 5773 5772 5771 5770 5770 5770 5770 5770 5770 5771
5855 5855 5855 5854 5854 5853 5852 5852 5850 5844 5842 5839 5836 5832 5828 5824 5820 5816 5813 5811 5809 5807 5804 5802 5799 5797 5794 5792 5789 5786 5783 5780 5777 5774 5771 5768 5765 5762 5761 5759 5758 5758 5758 5759 5759 5760 5760 5761 5762
5853 5853 5853 5852 5850 5849 5851 5850 5844 5836 5834 5832 5829 5825 5821 5816 5812 5808 5804 5801 5799 5797 5795 5793 5790 5788 5785 5782 5779 5776 5772 5769 5766 5762 5758 5754 5751 5748 5746 5745 5745 5745 5747 5748 5749 5751 5752 5754 5755
5851 5851 5850 5848 5846 5844 5845 5844 5841 5833 5829 5825 5821 5818 5814 5809 5804 5799 5795 5791 5788 5786 5784 5782 5780 5778 5775 5772 5768 5765 5762 5758 5754 5750 5745 5740 5737 5734 5732 5732 5733 5735 5738 5740 5742 5743 5744 5746 5747
5849 5847 5844 5843 5841 5839 5836 5839 5836 5830 5825 5820 5816 5811 5807 5802 5797 5791 5786 5781 5777 5774 5772 5770 5769 5767 5764 5761 5757 5754 5750 5746 5742 5737 5732 5727 5724 5722 5721 5722 5724 5727 5730 5733 5735 5736 5737 5739 5740
5846 5845 5843 5840 5837 5834 5831 5833 5829 5823 5819 5814 5809 5804 5799 5795 5790 5784 5778 5772 5768 5764 5761 5759 5757 5756 5753 5750 5747 5743 5739 5735 5730 5726 5721 5716 5713 5712 5712 5714 5717 5720 5723 5726 5728 5730 5731 5732 5733